LEVCLEIB

Guest
Details From LEVC - Valencia
To LEIB - Ibiza
Flight Number -
Tags generated
Created
Modified
Stats Distance 94 nm / 174 km
Max Altitude 8,400 ft / 2,560 m
Waypoints 3
Social Downloads 0
Likes 0
Share VATSIM

Download

Looking for another format? Having issues loading an existing format? Contact us
Advertisement - Login to hide

Notes

Basic altitude profile: - Ascent Rate: 2500ft/min - Ascent Speed: 180kts - Cruise Altitude: 9500ft - Cruise Speed: 420kts - Descent Rate: 1500ft/min - Descent Speed: 250kts Options: - Use NATs: yes - Use PACOTS: yes - Use low airways: yes - Use high airways: yes

Route

LEVC COMPI LEIB

ID Type Via Altitude (ft/m) Position (lat/lon) Dist (leg/tot) Name
O LEVC APT - 0 / 0 39.48824 / -0.48389 - / 0 nm Valencia
COMPI FIX - 8,400 / 2,560 39.35082 / -0.00788 23 / 23 nm
O LEIB APT - 0 / 0 38.87287 / 1.37304 70 / 94 nm Ibiza

Altitude Profile

Advertisement - Login to hide

LEVC

Details ICAO LEVC (VLC)
Name Valencia
Region Spain
Timezone Europe/Madrid (UTC+1.0)
Stats Elevation 225 ft / 69 m (AMSL)
Location 39.490000° -0.483345°
Runways 1
Magnetic Variation 0.317° E

METAR

LEVC 230430Z 23013KT CAVOK 10/04 Q1006 NOSIG

Decode

TAF

TAF AMD LEVC 230401Z 2304/2324 27012KT 9999 FEW040 TX18/2313Z TN06/2306Z TEMPO 2307/2318 29020G35KT

Decode

Departure Runways

ID Width Length Bearing (true/mag) Surface Threshold Overrun Markings Lighting
12 148 ft / 45 m 10,529 ft / 3,209 m 116.25° / 115.94° ASPHALT 0 ft / 0 m 787 ft / 240 m PREC-APP CENTERLINE EDGE THRESHOLD CALVERT REIL-OMNI
30 148 ft / 45 m 10,529 ft / 3,209 m 296.28° / 295.96° ASPHALT 974 ft / 297 m 945 ft / 288 m PREC-APP CENTERLINE EDGE THRESHOLD CALVERT REIL-OMNI

LEIB

Details ICAO LEIB (IBZ)
Name Ibiza
Region Spain
Timezone Europe/Madrid (UTC+1.0)
Stats Elevation 20 ft / 6 m (AMSL)
Location 38.872900° 1.373100°
Runways 1
Magnetic Variation 0.783° E

METAR

LEIB 230430Z 28009KT 260V330 CAVOK 11/04 Q1005 NOSIG

Decode

TAF

TAF LEIB 230200Z 2303/2403 27012KT 9999 SCT040 TX17/2312Z TN07/2306Z TEMPO 2308/2313 27025G35KT BECMG 2312/2314 32020KT TEMPO 2313/2403 32020G37KT

Decode

Destination Runways

ID Width Length Bearing (true/mag) Surface Threshold Overrun Markings Lighting
06 148 ft / 45 m 9,196 ft / 2,803 m 61.99° / 61.21° ASPHALT 0 ft / 0 m 177 ft / 54 m APP CENTERLINE EDGE THRESHOLD MALS
24 148 ft / 45 m 9,196 ft / 2,803 m 242.01° / 241.23° ASPHALT 0 ft / 0 m 197 ft / 60 m PREC-APP CENTERLINE EDGE THRESHOLD CALVERT

Approach Navaids

Runway Type Ident Frequency Range Bearing (true/mag) Slope Elevation
06 LOC-ILS IBI 111.10 MHz 18 nm / 33 km 62.00° / 61.22 ° - 20 ft / 6 m (AMSL)
06 DME IBI 111.10 MHz 18 nm / 33 km - - 20 ft / 6 m (AMSL)
06 GS IBI 111.10 MHz 10 nm / 19 km 62.00° / 61.22 ° 3.00° 20 ft / 6 m (AMSL)
24 DME IBZ 109.50 MHz 18 nm / 33 km - - 69 ft / 21 m (AMSL)
24 GS IBZ 109.50 MHz 10 nm / 19 km 242.71° / 241.93 ° 3.00° 69 ft / 21 m (AMSL)
24 LOC-ILS IBZ 109.50 MHz 18 nm / 33 km 241.81° / 241.03 ° - 15 ft / 5 m (AMSL)

Popular Alternatives